Previsão horária em Cegly

Hoje, 25 Julho, Domingo

Tempo Temperatura Precipitação Vento Pressão Humidade
00:00 +19°C° 0 mm 3 m/s 748 mmHg 69%
01:00 +19°C° 0 mm 3 m/s 748 mmHg 69%
02:00 +19°C° 0 mm 3 m/s 747 mmHg 69%
03:00 +19°C° 0 mm 3 m/s 747 mmHg 69%
04:00 +19°C° 0 mm 3 m/s 747 mmHg 70%
05:00 +20°C° 0 mm 3 m/s 747 mmHg 67%
06:00 +22°C° 0 mm 3 m/s 747 mmHg 65%
07:00 +24°C° 0 mm 3 m/s 747 mmHg 63%
08:00 +25°C° 0 mm 4 m/s 747 mmHg 57%
09:00 +27°C° 0 mm 4 m/s 747 mmHg 51%
10:00 +28°C° 0 mm 5 m/s 747 mmHg 46%
11:00 +27°C° 0 mm 5 m/s 747 mmHg 50%
12:00 +26°C° 0 mm 5 m/s 747 mmHg 54%
13:00 +25°C° 0 mm 5 m/s 748 mmHg 58%
14:00 +25°C° 0 mm 4 m/s 748 mmHg 58%
15:00 +25°C° 0 mm 4 m/s 748 mmHg 57%
16:00 +25°C° 0 mm 4 m/s 748 mmHg 56%
17:00 +25°C° 0 mm 4 m/s 747 mmHg 60%
18:00 +24°C° 0 mm 3 m/s 747 mmHg 63%
19:00 +24°C° 0 mm 3 m/s 747 mmHg 66%
20:00 +21°C° 0 mm 3 m/s 747 mmHg 70%
21:00 +20°C° 0 mm 3 m/s 747 mmHg 75%
22:00 +19°C° 0 mm 3 m/s 747 mmHg 79%
23:00 +19°C° 0 mm 3 m/s 747 mmHg 81%

Amanhã, 26 Julho, Segunda-feira

Tempo Temperatura Precipitação Vento Pressão Humidade
00:00 +18°C° 0 mm 3 m/s 746 mmHg 83%
01:00 +18°C° 0 mm 2 m/s 746 mmHg 85%
02:00 +18°C° 0 mm 2 m/s 746 mmHg 84%
03:00 +18°C° 0 mm 2 m/s 746 mmHg 84%
04:00 +18°C° 0 mm 2 m/s 746 mmHg 84%
05:00 +19°C° 0 mm 2 m/s 746 mmHg 79%
06:00 +21°C° 0 mm 1 m/s 746 mmHg 73%
07:00 +23°C° 0 mm 1 m/s 746 mmHg 68%
08:00 +24°C° 0 mm 1 m/s 746 mmHg 63%
09:00 +26°C° 0 mm 1 m/s 746 mmHg 57%
10:00 +28°C° 0 mm 1 m/s 747 mmHg 52%
11:00 +29°C° 0 mm 1 m/s 746 mmHg 50%
12:00 +29°C° 0 mm 1 m/s 746 mmHg 47%
13:00 +30°C° 0 mm 2 m/s 746 mmHg 45%
14:00 +30°C° 0 mm 2 m/s 746 mmHg 45%
15:00 +30°C° 0 mm 2 m/s 746 mmHg 46%
16:00 +30°C° 0 mm 2 m/s 746 mmHg 46%
17:00 +29°C° 0 mm 2 m/s 746 mmHg 50%
18:00 +28°C° 0 mm 1 m/s 746 mmHg 55%
19:00 +27°C° 0 mm 1 m/s 746 mmHg 59%
20:00 +26°C° 0 mm 1 m/s 746 mmHg 60%
21:00 +25°C° 0 mm 1 m/s 746 mmHg 60%
22:00 +23°C° 0 mm 1 m/s 746 mmHg 61%
23:00 +23°C° 0 mm 2 m/s 746 mmHg 64%

Depois de amanhã, 27 Julho, Terça-feira

Tempo Temperatura Precipitação Vento Pressão Humidade
00:00 +21°C° 0 mm 3 m/s 746 mmHg 67%
01:00 +21°C° 0 mm 3 m/s 746 mmHg 69%
02:00 +20°C° 0 mm 3 m/s 746 mmHg 75%
03:00 +19°C° 0 mm 3 m/s 747 mmHg 80%
04:00 +19°C° 0 mm 3 m/s 747 mmHg 86%
05:00 +19°C° 0.1 mm 3 m/s 747 mmHg 85%
06:00 +20°C° 0.1 mm 3 m/s 747 mmHg 85%
07:00 +20°C° 0.1 mm 4 m/s 748 mmHg 84%
08:00 +21°C° 0.1 mm 3 m/s 748 mmHg 78%
09:00 +24°C° 0.1 mm 3 m/s 748 mmHg 72%
10:00 +25°C° 0.1 mm 3 m/s 748 mmHg 67%
11:00 +27°C° 0 mm 3 m/s 748 mmHg 60%
12:00 +28°C° 0 mm 3 m/s 748 mmHg 53%
13:00 +29°C° 0 mm 3 m/s 748 mmHg 45%
14:00 +30°C° 0 mm 3 m/s 748 mmHg 42%
15:00 +31°C° 0 mm 3 m/s 748 mmHg 39%
16:00 +31°C° 0 mm 3 m/s 748 mmHg 36%
17:00 +30°C° 0 mm 3 m/s 748 mmHg 41%
18:00 +28°C° 0 mm 3 m/s 748 mmHg 45%
19:00 +27°C° 0 mm 3 m/s 747 mmHg 49%
20:00 +26°C° 0 mm 2 m/s 748 mmHg 53%
21:00 +24°C° 0 mm 2 m/s 748 mmHg 56%
22:00 +23°C° 0 mm 2 m/s 748 mmHg 60%
23:00 +23°C° 0 mm 2 m/s 748 mmHg 63%

28 Julho, Quarta-feira

Tempo Temperatura Precipitação Vento Pressão Humidade
00:00 +21°C° 0 mm 2 m/s 748 mmHg 66%
01:00 +20°C° 0 mm 2 m/s 748 mmHg 69%
02:00 +20°C° 0 mm 2 m/s 748 mmHg 71%
03:00 +20°C° 0 mm 2 m/s 748 mmHg 73%
04:00 +19°C° 0 mm 2 m/s 748 mmHg 75%
05:00 +21°C° 0 mm 2 m/s 748 mmHg 72%
06:00 +23°C° 0 mm 2 m/s 748 mmHg 68%
07:00 +24°C° 0 mm 3 m/s 748 mmHg 64%
08:00 +25°C° 0 mm 3 m/s 748 mmHg 59%
09:00 +27°C° 0 mm 3 m/s 748 mmHg 54%
10:00 +28°C° 0 mm 4 m/s 748 mmHg 48%
11:00 +28°C° 0 mm 3 m/s 748 mmHg 49%
12:00 +27°C° 0 mm 3 m/s 748 mmHg 49%
13:00 +27°C° 0 mm 3 m/s 748 mmHg 50%
14:00 +26°C° 0 mm 4 m/s 748 mmHg 54%
15:00 +23°C° 0 mm 4 m/s 749 mmHg 59%
16:00 +22°C° 0 mm 5 m/s 749 mmHg 64%
17:00 +21°C° 0.1 mm 4 m/s 749 mmHg 70%
18:00 +21°C° 0.1 mm 4 m/s 749 mmHg 77%
19:00 +20°C° 0.1 mm 3 m/s 749 mmHg 83%
20:00 +19°C° 0.1 mm 3 m/s 749 mmHg 86%
21:00 +19°C° 0.1 mm 2 m/s 749 mmHg 88%
22:00 +18°C° 0.1 mm 2 m/s 749 mmHg 91%
23:00 +18°C° 0 mm 2 m/s 749 mmHg 92%

29 Julho, Quinta-feira

Tempo Temperatura Precipitação Vento Pressão Humidade
00:00 +17°C° 0 mm 2 m/s 749 mmHg 93%
01:00 +17°C° 0 mm 2 m/s 749 mmHg 94%
02:00 +17°C° 0 mm 2 m/s 749 mmHg 95%
03:00 +16°C° 0 mm 2 m/s 749 mmHg 95%
04:00 +16°C° 0 mm 2 m/s 749 mmHg 96%
05:00 +17°C° 0 mm 2 m/s 750 mmHg 90%
06:00 +18°C° 0 mm 2 m/s 750 mmHg 85%
07:00 +20°C° 0 mm 2 m/s 750 mmHg 79%
08:00 +21°C° 0 mm 2 m/s 750 mmHg 70%
09:00 +24°C° 0 mm 2 m/s 750 mmHg 62%
10:00 +26°C° 0 mm 2 m/s 750 mmHg 53%
11:00 +27°C° 0 mm 2 m/s 750 mmHg 49%
12:00 +28°C° 0 mm 2 m/s 749 mmHg 45%
13:00 +29°C° 0 mm 2 m/s 749 mmHg 40%
14:00 +30°C° 0 mm 2 m/s 749 mmHg 39%
15:00 +30°C° 0 mm 3 m/s 748 mmHg 37%
16:00 +30°C° 0 mm 3 m/s 748 mmHg 36%
17:00 +29°C° 0 mm 2 m/s 748 mmHg 40%
18:00 +28°C° 0 mm 2 m/s 747 mmHg 44%
19:00 +27°C° 0 mm 2 m/s 747 mmHg 49%
20:00 +26°C° 0 mm 2 m/s 747 mmHg 51%
21:00 +25°C° 0 mm 2 m/s 747 mmHg 53%
22:00 +24°C° 0 mm 2 m/s 747 mmHg 55%
23:00 +23°C° 0 mm 2 m/s 747 mmHg 57%

30 Julho, Sexta-feira

Tempo Temperatura Precipitação Vento Pressão Humidade
00:00 +21°C° 0 mm 2 m/s 747 mmHg 59%
01:00 +21°C° 0 mm 2 m/s 746 mmHg 61%
02:00 +20°C° 0 mm 2 m/s 746 mmHg 63%
03:00 +20°C° 0 mm 2 m/s 746 mmHg 64%
04:00 +20°C° 0 mm 3 m/s 746 mmHg 65%
05:00 +20°C° 0.4 mm 3 m/s 746 mmHg 68%
06:00 +21°C° 0.4 mm 3 m/s 746 mmHg 71%
07:00 +22°C° 0.4 mm 3 m/s 746 mmHg 74%
08:00 +25°C° 0.1 mm 4 m/s 745 mmHg 67%
09:00 +27°C° 0.1 mm 4 m/s 745 mmHg 60%
10:00 +29°C° 0.1 mm 5 m/s 745 mmHg 53%
11:00 +29°C° 0 mm 5 m/s 744 mmHg 50%
12:00 +30°C° 0 mm 6 m/s 744 mmHg 47%
13:00 +32°C° 0 mm 6 m/s 744 mmHg 44%
14:00 +30°C° 0.1 mm 6 m/s 744 mmHg 50%
15:00 +29°C° 0.1 mm 6 m/s 744 mmHg 56%
16:00 +27°C° 0.1 mm 6 m/s 744 mmHg 62%
17:00 +26°C° 0 mm 5 m/s 744 mmHg 65%
18:00 +25°C° 0 mm 4 m/s 744 mmHg 68%
19:00 +23°C° 0 mm 4 m/s 744 mmHg 71%
20:00 +24°C° 0 mm 3 m/s 744 mmHg 73%
21:00 +23°C° 0 mm 2 m/s 745 mmHg 76%
22:00 +21°C° 0 mm 2 m/s 745 mmHg 78%
23:00 +20°C° 0 mm 2 m/s 745 mmHg 79%
Mostrar mais

Necessitamos do seu Consentimento

A Meteoprog e os seus Fornecedores de Serviços podem armazenar e aceder a dados pessoais como cookies, identificadores do dispositivo ou outras tecnologias semelhantes existentes no seu dispositivo e processar estes dados para personalizar conteúdos e anúncios, assim como funcionalidades nas redes sociais e análise de tráfego.

  • Armazenar e/ou aceder a informações no seu dispositivo

    Os cookies, identificadores do dispositivo ou outras informações podem ser armazenados ou acedidos no seu dispositivo, para os fins acima indicados.

  • Anúncios e conteúdos personalizados, medição de anúncios e conteúdos, dados sobre o público-alvo e desenvolvimento de produtos

    Os anúncios e os conteúdos podem ser personalizados com base num perfil. Podem ser adicionados dados adicionais para uma maior personalização dos anúncios e dos conteúdos. A eficácia dos anúncios e dos conteúdos pode ser medida. Podem ser obtidas informações sobre o público que visualizou os anúncios e os conteúdos. Estes dados podem ser usados para desenvolver ou melhorar sistemas, softwares ou a experiência do utilizador.

Ao clicar em "Eu concordo”, permitirá o uso de cookies, identificadores do dispositivo e web beacons mencionados ou outras tecnologias semelhantes. As configurações do navegador do seu dispositivo podem ser alteradas.

Para certos fins, podem ser invocados interesses legítimos ao invés de consentimento. Pode ler mais informação sobre este assunto na nossa Política de Privacidade e Cookies.